Regional Weather Roundup
Issued by NWS

Home | Current Version | Previous Version | Text Only | Print | Product List | Glossary On
Versions: 1 2 3 4 5 6 7 8 9 10 11 12 13 14 15 16 17 18 19 20 21 22 23 24 25 26 27 28
000
ASUS45 KBOI 261610
RWRID

IDAHO REGIONAL WEATHER ROUNDUP
NATIONAL WEATHER SERVICE BOISE ID
1000 AM MDT THU APR 26 2018

NOTE: "FAIR" INDICATES FEW OR NO CLOUDS BELOW 12000 FEET
WITH NO SIGNIFICANT WEATHER AND/OR OBSTRUCTIONS TO VISIBILITY

IDZ012-014-261700-
SOUTHWEST IDAHO


CITY           SKY/WX    TMP DP  RH WIND       PRES   REMARKS
BOISE          SUNNY     62  34  35 S14       30.17S
CALDWELL       SUNNY     61  37  41 E5        30.17F
MOUNTAIN HOME  SUNNY     60  33  35 SE20G25   30.18S
$$

IDZ016-017-261700-
SOUTHCENTRAL IDAHO


CITY           SKY/WX    TMP DP  RH WIND       PRES   REMARKS
BURLEY         SUNNY     54  34  46 NE6G20    30.22S
JEROME         SUNNY     60  32  34 NE17      30.22S
TWIN FALLS     SUNNY     57  36  45 E13       30.22S
$$

IDZ019>023-261700-
SOUTHEAST IDAHO


CITY           SKY/WX    TMP DP  RH WIND       PRES   REMARKS
IDAHO FALLS    SUNNY     53  32  44 N10       30.27S
POCATELLO      SUNNY     56  35  45 N8        30.25S
REXBURG        SUNNY     53  29  39 NE8       30.26F
$$

IDZ006-010-011-018-031-032-261700-
CENTRAL IDAHO MOUNTAINS


CITY           SKY/WX    TMP DP  RH WIND       PRES   REMARKS
MCCALL         SUNNY     48  34  58 S6        30.21F
HAILEY         SUNNY     52  27  37 NW6       30.27F
STANLEY          N/A     40  28  62 CALM      30.32F
SALMON         SUNNY     48  29  47 VRB3      30.29F
CHALLIS        SUNNY     52  25  35 CALM      30.28F
$$

IDZ002-004-006-007-026-261700-
NORTHERN IDAHO


CITY           SKY/WX    TMP DP  RH WIND       PRES   REMARKS
LEWISTON       SUNNY     57  42  57 E8        30.16S
LOWELL           N/A     49  39  68 N3        30.23F
COEUR D`ALENE  SUNNY     54  36  50 NE13      30.19S
MULLAN PASS    SUNNY     51  25  36 VRB3      30.25R
$$




USA.gov is the U.S. government's official web portal to all federal, state and local government web resources and services.